Location: Br�znic
(45.9167°N, 22.6500°E)
Time: 13:29:06
(UTC+00:00)

ERS-2 - Pass Details

Date: 03 March 2021
Orbit: 492 x 496 km, 98.6° (Epoch: 15 April)

Event Time Altitude Azimuth Distance (km) Brightness Sun altitude
Rises 16:48:39 0° 23° (NNE) 2,593 5.5 -6.0°
Reaches altitude 10° 16:50:54 10° 34° (NNE) 1,706 4.5 -6.4°
Maximum altitude 16:54:12 32° 98° (E) 883 2.8 -6.9°
Drops below altitude 10° 16:57:29 10° 163° (SSE) 1,693 4.7 -7.5°
Sets 16:59:43 0° 173° (S) 2,570 5.7 -7.9°
